Location: Unspecified
(58.7730°N, 5.8460°E)
Time: 10:48:12
(UTC+02:00)

Cosmos 2058 - Visible Passes

Search period start: 23 May 2015 00:00
Search period end: 02 June 2015 00:00
Orbit: 567 x 588 km, 82.5° (Epoch: 22 May)

Date Brightness Start Highest point End Pass type
(mag) Time Alt. Az. Time Alt. Az. Time Alt. Az.
23 May 3.8 02:39:51 10° SSE 02:43:48 43° E 02:47:50 10° NNE visible
24 May 3.4 02:44:09 10° S 02:48:11 54° E 02:52:19 10° NNE visible
25 May 5.4 01:14:41 10° ESE 01:16:17 12° E 01:18:03 10° NE visible
25 May 3.1 02:48:34 11° S 02:52:34 69° E 02:56:48 10° NNE visible
26 May 5.2 01:18:12 10° ESE 01:20:33 15° E 01:23:03 10° NE visible
26 May 3.0 02:52:58 11° S 02:56:59 87° ESE 03:01:15 10° NNE visible
27 May 5.0 01:21:58 10° SE 01:24:51 19° E 01:27:50 10° NE visible
27 May 3.0 02:57:20 11° SSW 03:01:25 76° WNW 03:05:40 10° NNE visible
28 May 4.7 01:25:52 10° SE 01:29:09 23° E 01:32:30 10° NE visible
28 May 3.2 03:01:42 10° SSW 03:05:52 60° WNW 03:10:04 10° N visible
29 May 4.4 01:29:53 10° SSE 01:33:28 28° E 01:37:06 10° NNE visible
29 May 3.6 03:06:15 10° SW 03:10:19 48° WNW 03:14:27 10° N visible
30 May 4.0 01:34:06 11° SSE 01:37:47 35° E 01:41:40 10° NNE visible
30 May 3.9 03:10:50 10° SW 03:14:48 39° WNW 03:18:49 10° N visible
31 May 3.7 01:38:26 12° SSE 01:42:07 43° E 01:46:10 10° NNE visible
31 May 4.2 03:15:29 10° SW 03:19:18 32° WNW 03:23:08 10° N visible
01 Jun 3.3 01:42:44 12° S 01:46:28 55° E 01:50:39 10° NNE visible
01 Jun 4.5 03:20:12 10° WSW 03:23:49 27° WNW 03:27:26 10° N visible
